Location: Barcelona
(41.3829°N, 2.1774°E)
Time: 07:16:43
(UTC+00:00)

ISS - Pass Details

Date: 06 September 2024
Orbit: 414 x 424 km, 51.6° (Epoch: 16 September)

Event Time Altitude Azimuth Distance (km) Brightness Sun altitude
Exits shadow 02:05:34 - 61° (ENE) 1,663 0.1 -33.1°
Enters shadow 03:10:07 -54° 292° (WNW) 10,832 3.4 -23.9°
Maximum altitude 03:39:58 49° 30° (NNE) 539 -2.9 -19.1°
